OBJECT A, 60203

Orbit data source: Space-Track

You're viewing an Uncataloged Satellite

Recently launched and/or uncataloged satellites may have evolving metadata. Metadata may include but not limited to: Owner, Maufacturer, Bus, Motor, and Mission.

OBJECT A, 60203 is an American satellite in SSO that was launched on Thu, 04 Jul 2024 UTC via an FIREFLY ALPHA launch vehicle from the Air Force Western Test Range (AFWTR). Unknown objects in Earth's orbit typically refer to objects detected orbiting the Earth but have not yet been identified or cataloged. These objects could be anything from previously untracked satellites, spent rocket stages, debris from satellite collisions, or even natural meteoroids temporarily captured by Earth's gravity.

Loading next visibility...
Identifier
60203, 2024-125A
Orbit
SSO
Country
Flag of USUS
Related business
None
Manufacturer
Unknown
Mission
Operational Amateur Technology
Bus & Motor
Unknown
Mass
Unknown
Launch date (UTC)
2024-07-04 (1 year ago)
Launch vehicle
FIREFLY ALPHA
Launch site
Air Force Western Test Range (AFWTR)
Object type
Unknown
Shape & HBR
Box, 0.1 m
Radar Cross Section
0.025 m², Small (<0.1 m²)

Expand to show TLE details & history
Last TLE update: 10 hours ago

TLE from 10 hours ago
0 OBJECT A
1 60203U 24125A   25346.86320952  .00045666  00000-0  88328-3 0  9999
2 60203  97.2510 197.6400 0014442 173.0722 187.0731 15.47507226 80656
Epoch: 2025-12-12T20:43Z
TLE epoch observation values (Epoch: 2025-12-12T20:43:01.302Z)
Latitude
-0.00001°
Longitude
165.08584°
Altitude
436.904 km
Speed
7.644 km/s
True Right ascension
13h 10m 33s
True Declination
0° 00' 00"
Sunlit
Object was in daylight at epoch
Visualization orbit readout
Latitude
Unknown
Longitude
Unknown
Altitude
Unknown
Speed
Unknown
Apparent Right ascension
Unknown
Apparent Declination
Unknown
Sunlit
N/A
Visualization observer readout
Local Sidereal Time
05:23:37
Azimuth
Unknown
Elevation
Unknown
Doppler factor
Unknown
Orbital elements
Apogee altitude
430.763 km
Perigee altitude
411.124 km
Semi-major axis
6,799.081 km
Eccentricity
0.00144
Inclination
97.251°
RAAN
197.64°
Arg. of periapsis
173.0722°
True anomaly
187.05276°
Mean anomaly
187.0731°
Eccentric anomaly
187.06293°
Mean motion
3.8714 °/min
Orbital period
92.99 mins
BSTAR
0.00088328
Loading maneuver chart data...
Computing Atmospheric mass density...
Loading historical data...
Loading historical data...
Loading historical data...
Loading historical data...
Loading historical data...
Loading historical data...
Loading historical data...

Documentation

Showing up to 5 results
|